Year,Month,Day,Hour,Minute,Value (Times are PST for insolation in W/m^2)
2007,02,24,00,00,0.00
2007,02,24,00,01,0.00
2007,02,24,00,02,0.00
2007,02,24,00,03,0.00
2007,02,24,00,04,0.00
2007,02,24,00,05,0.00
2007,02,24,00,06,0.00
2007,02,24,00,07,0.00
2007,02,24,00,08,0.00
2007,02,24,00,09,0.00
2007,02,24,00,10,0.00
2007,02,24,00,11,0.00
2007,02,24,00,12,0.00
2007,02,24,00,13,0.00
2007,02,24,00,14,0.00
2007,02,24,00,15,0.00
2007,02,24,00,16,0.00
2007,02,24,00,17,0.00
2007,02,24,00,18,0.00
2007,02,24,00,19,0.00
2007,02,24,00,20,0.00
2007,02,24,00,21,0.00
2007,02,24,00,22,0.00
2007,02,24,00,23,0.00
2007,02,24,00,24,0.00
2007,02,24,00,25,0.00
2007,02,24,00,26,0.00
2007,02,24,00,27,0.00
2007,02,24,00,28,0.00
2007,02,24,00,29,0.00
2007,02,24,00,30,0.00
2007,02,24,00,31,0.00
2007,02,24,00,32,0.00
2007,02,24,00,33,0.00
2007,02,24,00,34,0.00
2007,02,24,00,35,0.00
2007,02,24,00,36,0.00
2007,02,24,00,37,0.00
2007,02,24,00,38,0.00
2007,02,24,00,39,0.00
2007,02,24,00,40,0.00
2007,02,24,00,41,0.00
2007,02,24,00,42,0.00
2007,02,24,00,43,0.00
2007,02,24,00,44,0.00
2007,02,24,00,45,0.00
2007,02,24,00,46,0.00
2007,02,24,00,47,0.00
2007,02,24,00,48,0.00
2007,02,24,00,49,0.00
2007,02,24,00,50,0.00
2007,02,24,00,51,0.00
2007,02,24,00,52,0.00
2007,02,24,00,53,0.00
2007,02,24,00,54,0.00
2007,02,24,00,55,0.00
2007,02,24,00,56,0.00
2007,02,24,00,57,0.00
2007,02,24,00,58,0.00
2007,02,24,00,59,0.00
2007,02,24,01,00,0.00
2007,02,24,01,01,0.00
2007,02,24,01,02,0.00
2007,02,24,01,03,0.00
2007,02,24,01,04,0.00
2007,02,24,01,05,0.00
2007,02,24,01,06,0.00
2007,02,24,01,07,0.00
2007,02,24,01,08,0.00
2007,02,24,01,09,0.00
2007,02,24,01,10,0.00
2007,02,24,01,11,0.00
2007,02,24,01,12,0.00
2007,02,24,01,13,0.00
2007,02,24,01,14,0.00
2007,02,24,01,15,0.00
2007,02,24,01,16,0.00
2007,02,24,01,17,0.00
2007,02,24,01,18,0.00
2007,02,24,01,19,0.00
2007,02,24,01,20,0.00
2007,02,24,01,21,0.00
2007,02,24,01,22,0.00
2007,02,24,01,23,0.00
2007,02,24,01,24,0.00
2007,02,24,01,25,0.00
2007,02,24,01,26,0.00
2007,02,24,01,27,0.00
2007,02,24,01,28,0.00
2007,02,24,01,29,0.00
2007,02,24,01,30,0.00
2007,02,24,01,31,0.00
2007,02,24,01,32,0.00
2007,02,24,01,33,0.00
2007,02,24,01,34,0.00
2007,02,24,01,35,0.00
2007,02,24,01,36,0.00
2007,02,24,01,37,0.00
2007,02,24,01,38,0.00
2007,02,24,01,39,0.00
2007,02,24,01,40,0.00
2007,02,24,01,41,0.00
2007,02,24,01,42,0.00
2007,02,24,01,43,0.00
2007,02,24,01,44,0.00
2007,02,24,01,45,0.00
2007,02,24,01,46,0.00
2007,02,24,01,47,0.00
2007,02,24,01,48,0.00
2007,02,24,01,49,0.00
2007,02,24,01,50,0.00
2007,02,24,01,51,0.00
2007,02,24,01,52,0.00
2007,02,24,01,53,0.00
2007,02,24,01,54,0.00
2007,02,24,01,55,0.00
2007,02,24,01,56,0.00
2007,02,24,01,57,0.00
2007,02,24,01,58,0.00
2007,02,24,01,59,0.00
2007,02,24,02,00,0.00
2007,02,24,02,01,0.00
2007,02,24,02,02,0.00
2007,02,24,02,03,0.00
2007,02,24,02,04,0.00
2007,02,24,02,05,0.00
2007,02,24,02,06,0.00
2007,02,24,02,07,0.00
2007,02,24,02,08,0.00
2007,02,24,02,09,0.00
2007,02,24,02,10,0.00
2007,02,24,02,11,0.00
2007,02,24,02,12,0.00
2007,02,24,02,13,0.00
2007,02,24,02,14,0.00
2007,02,24,02,15,0.00
2007,02,24,02,16,0.00
2007,02,24,02,17,0.00
2007,02,24,02,18,0.00
2007,02,24,02,19,0.00
2007,02,24,02,20,0.00
2007,02,24,02,21,0.00
2007,02,24,02,22,0.00
2007,02,24,02,23,0.00
2007,02,24,02,24,0.00
2007,02,24,02,25,0.00
2007,02,24,02,26,0.00
2007,02,24,02,27,0.00
2007,02,24,02,28,0.00
2007,02,24,02,29,0.00
2007,02,24,02,30,0.00
2007,02,24,02,31,0.00
2007,02,24,02,32,0.00
2007,02,24,02,33,0.00
2007,02,24,02,34,0.00
2007,02,24,02,35,0.00
2007,02,24,02,36,0.00
2007,02,24,02,37,0.00
2007,02,24,02,38,0.00
2007,02,24,02,39,0.00
2007,02,24,02,40,0.00
2007,02,24,02,41,0.00
2007,02,24,02,42,0.00
2007,02,24,02,43,0.00
2007,02,24,02,44,0.00
2007,02,24,02,45,0.00
2007,02,24,02,46,0.00
2007,02,24,02,47,0.00
2007,02,24,02,48,0.00
2007,02,24,02,49,0.00
2007,02,24,02,50,0.00
2007,02,24,02,51,0.00
2007,02,24,02,52,0.00
2007,02,24,02,53,0.00
2007,02,24,02,54,0.00
2007,02,24,02,55,0.00
2007,02,24,02,56,0.00
2007,02,24,02,57,0.00
2007,02,24,02,58,0.00
2007,02,24,02,59,0.00
2007,02,24,03,00,0.00
2007,02,24,03,01,0.00
2007,02,24,03,02,0.00
2007,02,24,03,03,0.00
2007,02,24,03,04,0.00
2007,02,24,03,05,0.00
2007,02,24,03,06,0.00
2007,02,24,03,07,0.00
2007,02,24,03,08,0.00
2007,02,24,03,09,0.00
2007,02,24,03,10,0.00
2007,02,24,03,11,0.00
2007,02,24,03,12,0.00
2007,02,24,03,13,0.00
2007,02,24,03,14,0.00
2007,02,24,03,15,0.00
2007,02,24,03,16,0.00
2007,02,24,03,17,0.00
2007,02,24,03,18,0.00
2007,02,24,03,19,0.00
2007,02,24,03,20,0.00
2007,02,24,03,21,0.00
2007,02,24,03,22,0.00
2007,02,24,03,23,0.00
2007,02,24,03,24,0.00
2007,02,24,03,25,0.00
2007,02,24,03,26,0.00
2007,02,24,03,27,0.00
2007,02,24,03,28,0.00
2007,02,24,03,29,0.00
2007,02,24,03,30,0.00
2007,02,24,03,31,0.00
2007,02,24,03,32,0.00
2007,02,24,03,33,0.00
2007,02,24,03,34,0.00
2007,02,24,03,35,0.00
2007,02,24,03,36,0.00
2007,02,24,03,37,0.00
2007,02,24,03,38,0.00
2007,02,24,03,39,0.00
2007,02,24,03,40,0.00
2007,02,24,03,41,0.00
2007,02,24,03,42,0.00
2007,02,24,03,43,0.00
2007,02,24,03,44,0.00
2007,02,24,03,45,0.00
2007,02,24,03,46,0.00
2007,02,24,03,47,0.00
2007,02,24,03,48,0.00
2007,02,24,03,49,0.00
2007,02,24,03,50,0.00
2007,02,24,03,51,0.00
2007,02,24,03,52,0.00
2007,02,24,03,53,0.00
2007,02,24,03,54,0.00
2007,02,24,03,55,0.00
2007,02,24,03,56,0.00
2007,02,24,03,57,0.00
2007,02,24,03,58,0.00
2007,02,24,03,59,0.00
2007,02,24,04,00,0.00
2007,02,24,04,01,0.00
2007,02,24,04,02,0.00
2007,02,24,04,03,0.00
2007,02,24,04,04,0.00
2007,02,24,04,05,0.00
2007,02,24,04,06,0.00
2007,02,24,04,07,0.00
2007,02,24,04,08,0.00
2007,02,24,04,09,0.00
2007,02,24,04,10,0.00
2007,02,24,04,11,0.00
2007,02,24,04,12,0.00
2007,02,24,04,13,0.00
2007,02,24,04,14,0.00
2007,02,24,04,15,0.00
2007,02,24,04,16,0.00
2007,02,24,04,17,0.00
2007,02,24,04,18,0.00
2007,02,24,04,19,0.00
2007,02,24,04,20,0.00
2007,02,24,04,21,0.00
2007,02,24,04,22,0.00
2007,02,24,04,23,0.00
2007,02,24,04,24,0.00
2007,02,24,04,25,0.00
2007,02,24,04,26,0.00
2007,02,24,04,27,0.00
2007,02,24,04,28,0.00
2007,02,24,04,29,0.00
2007,02,24,04,30,0.00
2007,02,24,04,31,0.00
2007,02,24,04,32,0.00
2007,02,24,04,33,0.00
2007,02,24,04,34,0.00
2007,02,24,04,35,0.00
2007,02,24,04,36,0.00
2007,02,24,04,37,0.00
2007,02,24,04,38,0.00
2007,02,24,04,39,0.00
2007,02,24,04,40,0.00
2007,02,24,04,41,0.00
2007,02,24,04,42,0.00
2007,02,24,04,43,0.00
2007,02,24,04,44,0.00
2007,02,24,04,45,0.00
2007,02,24,04,46,0.00
2007,02,24,04,47,0.00
2007,02,24,04,48,0.00
2007,02,24,04,49,0.00
2007,02,24,04,50,0.00
2007,02,24,04,51,0.00
2007,02,24,04,52,0.00
2007,02,24,04,53,0.00
2007,02,24,04,54,0.00
2007,02,24,04,55,0.00
2007,02,24,04,56,0.00
2007,02,24,04,57,0.00
2007,02,24,04,58,0.00
2007,02,24,04,59,0.00
2007,02,24,05,00,0.00
2007,02,24,05,01,0.00
2007,02,24,05,02,0.00
2007,02,24,05,03,0.00
2007,02,24,05,04,0.00
2007,02,24,05,05,0.00
2007,02,24,05,06,0.00
2007,02,24,05,07,0.00
2007,02,24,05,08,0.00
2007,02,24,05,09,0.00
2007,02,24,05,10,0.00
2007,02,24,05,11,0.00
2007,02,24,05,12,0.00
2007,02,24,05,13,0.00
2007,02,24,05,14,0.00
2007,02,24,05,15,0.00
2007,02,24,05,16,0.00
2007,02,24,05,17,0.00
2007,02,24,05,18,0.00
2007,02,24,05,19,0.00
2007,02,24,05,20,0.00
2007,02,24,05,21,0.00
2007,02,24,05,22,0.00
2007,02,24,05,23,0.00
2007,02,24,05,24,0.00
2007,02,24,05,25,0.00
2007,02,24,05,26,0.00
2007,02,24,05,27,0.00
2007,02,24,05,28,0.00
2007,02,24,05,29,0.00
2007,02,24,05,30,0.00
2007,02,24,05,31,0.00
2007,02,24,05,32,0.00
2007,02,24,05,33,0.00
2007,02,24,05,34,0.00
2007,02,24,05,35,0.00
2007,02,24,05,36,0.00
2007,02,24,05,37,0.00
2007,02,24,05,38,0.00
2007,02,24,05,39,0.00
2007,02,24,05,40,0.00
2007,02,24,05,41,0.00
2007,02,24,05,42,0.00
2007,02,24,05,43,0.00
2007,02,24,05,44,0.00
2007,02,24,05,45,0.00
2007,02,24,05,46,0.00
2007,02,24,05,47,0.00
2007,02,24,05,48,0.00
2007,02,24,05,49,0.00
2007,02,24,05,50,0.00
2007,02,24,05,51,0.00
2007,02,24,05,52,0.00
2007,02,24,05,53,0.00
2007,02,24,05,54,0.00
2007,02,24,05,55,0.00
2007,02,24,05,56,0.00
2007,02,24,05,57,0.00
2007,02,24,05,58,0.00
2007,02,24,05,59,0.00
2007,02,24,06,00,0.00
2007,02,24,06,01,0.00
2007,02,24,06,02,0.00
2007,02,24,06,03,0.00
2007,02,24,06,04,0.00
2007,02,24,06,05,0.00
2007,02,24,06,06,0.00
2007,02,24,06,07,0.00
2007,02,24,06,08,0.00
2007,02,24,06,09,0.00
2007,02,24,06,10,0.00
2007,02,24,06,11,0.00
2007,02,24,06,12,0.00
2007,02,24,06,13,0.00
2007,02,24,06,14,0.00
2007,02,24,06,15,0.00
2007,02,24,06,16,0.00
2007,02,24,06,17,0.00
2007,02,24,06,18,0.00
2007,02,24,06,19,0.00
2007,02,24,06,20,0.00
2007,02,24,06,21,0.00
2007,02,24,06,22,0.00
2007,02,24,06,23,0.00
2007,02,24,06,24,0.00
2007,02,24,06,25,0.00
2007,02,24,06,26,0.00
2007,02,24,06,27,0.00
2007,02,24,06,28,0.00
2007,02,24,06,29,0.00
2007,02,24,06,30,0.00
2007,02,24,06,31,0.00
2007,02,24,06,32,0.00
2007,02,24,06,33,0.00
2007,02,24,06,34,0.00
2007,02,24,06,35,0.00
2007,02,24,06,36,0.00
2007,02,24,06,37,0.00
2007,02,24,06,38,0.00
2007,02,24,06,39,0.00
2007,02,24,06,40,0.00
2007,02,24,06,41,0.00
2007,02,24,06,42,0.00
2007,02,24,06,43,0.00
2007,02,24,06,44,0.00
2007,02,24,06,45,0.00
2007,02,24,06,46,0.00
2007,02,24,06,47,0.00
2007,02,24,06,48,0.00
2007,02,24,06,49,0.00
2007,02,24,06,50,0.00
2007,02,24,06,51,0.00
2007,02,24,06,52,0.00
2007,02,24,06,53,0.00
2007,02,24,06,54,0.00
2007,02,24,06,55,0.00
2007,02,24,06,56,0.00
2007,02,24,06,57,0.00
2007,02,24,06,58,0.00
2007,02,24,06,59,0.00
2007,02,24,07,00,0.00
2007,02,24,07,01,0.00
2007,02,24,07,02,0.00
2007,02,24,07,03,0.00
2007,02,24,07,04,0.00
2007,02,24,07,05,0.00
2007,02,24,07,06,0.00
2007,02,24,07,07,0.00
2007,02,24,07,08,0.00
2007,02,24,07,09,0.00
2007,02,24,07,10,0.00
2007,02,24,07,11,0.00
2007,02,24,07,12,0.00
2007,02,24,07,13,0.00
2007,02,24,07,14,0.00
2007,02,24,07,15,0.00
2007,02,24,07,16,0.00
2007,02,24,07,17,0.00
2007,02,24,07,18,0.00
2007,02,24,07,19,0.00
2007,02,24,07,20,0.00
2007,02,24,07,21,0.00
2007,02,24,07,22,0.00
2007,02,24,07,23,0.00
2007,02,24,07,24,0.00
2007,02,24,07,25,0.00
2007,02,24,07,26,0.00
2007,02,24,07,27,0.00
2007,02,24,07,28,0.00
2007,02,24,07,29,0.00
2007,02,24,07,30,0.00
2007,02,24,07,31,0.00
2007,02,24,07,32,0.00
2007,02,24,07,33,4.50
2007,02,24,07,34,5.00
2007,02,24,07,35,5.00
2007,02,24,07,36,5.00
2007,02,24,07,37,5.00
2007,02,24,07,38,5.00
2007,02,24,07,39,5.00
2007,02,24,07,40,5.30
2007,02,24,07,41,6.30
2007,02,24,07,42,6.00
2007,02,24,07,43,7.00
2007,02,24,07,44,7.00
2007,02,24,07,45,8.70
2007,02,24,07,46,7.50
2007,02,24,07,47,9.00
2007,02,24,07,48,9.00
2007,02,24,07,49,10.90
2007,02,24,07,50,11.20
2007,02,24,07,51,9.10
2007,02,24,07,52,9.60
2007,02,24,07,53,12.00
2007,02,24,07,54,12.00
2007,02,24,07,55,11.40
2007,02,24,07,56,11.80
2007,02,24,07,57,12.00
2007,02,24,07,58,12.00
2007,02,24,07,59,12.00
2007,02,24,08,00,12.00
2007,02,24,08,01,12.00
2007,02,24,08,02,13.70
2007,02,24,08,03,14.20
2007,02,24,08,04,16.50
2007,02,24,08,05,19.20
2007,02,24,08,06,22.10
2007,02,24,08,07,23.00
2007,02,24,08,08,24.70
2007,02,24,08,09,25.20
2007,02,24,08,10,26.60
2007,02,24,08,11,28.00
2007,02,24,08,12,28.00
2007,02,24,08,13,26.50
2007,02,24,08,14,26.00
2007,02,24,08,15,25.60
2007,02,24,08,16,27.10
2007,02,24,08,17,25.00
2007,02,24,08,18,26.90
2007,02,24,08,19,28.00
2007,02,24,08,20,28.10
2007,02,24,08,21,30.00
2007,02,24,08,22,31.00
2007,02,24,08,23,31.60
2007,02,24,08,24,28.70
2007,02,24,08,25,26.40
2007,02,24,08,26,28.20
2007,02,24,08,27,33.50
2007,02,24,08,28,40.00
2007,02,24,08,29,40.90
2007,02,24,08,30,38.10
2007,02,24,08,31,33.80
2007,02,24,08,32,36.80
2007,02,24,08,33,37.00
2007,02,24,08,34,37.00
2007,02,24,08,35,35.90
2007,02,24,08,36,35.00
2007,02,24,08,37,40.90
2007,02,24,08,38,43.70
2007,02,24,08,39,39.60
2007,02,24,08,40,31.80
2007,02,24,08,41,27.20
2007,02,24,08,42,25.00
2007,02,24,08,43,25.90
2007,02,24,08,44,33.40
2007,02,24,08,45,37.80
2007,02,24,08,46,39.60
2007,02,24,08,47,39.60
2007,02,24,08,48,41.40
2007,02,24,08,49,40.30
2007,02,24,08,50,38.10
2007,02,24,08,51,33.00
2007,02,24,08,52,33.90
2007,02,24,08,53,33.80
2007,02,24,08,54,33.00
2007,02,24,08,55,33.00
2007,02,24,08,56,35.30
2007,02,24,08,57,38.60
2007,02,24,08,58,41.10
2007,02,24,08,59,40.00
2007,02,24,09,00,40.00
2007,02,24,09,01,41.50
2007,02,24,09,02,35.60
2007,02,24,09,03,29.40
2007,02,24,09,04,32.50
2007,02,24,09,05,43.50
2007,02,24,09,06,58.80
2007,02,24,09,07,76.90
2007,02,24,09,08,89.50
2007,02,24,09,09,81.20
2007,02,24,09,10,69.40
2007,02,24,09,11,54.80
2007,02,24,09,12,53.20
2007,02,24,09,13,58.70
2007,02,24,09,14,64.70
2007,02,24,09,15,55.20
2007,02,24,09,16,56.10
2007,02,24,09,17,68.40
2007,02,24,09,18,78.20
2007,02,24,09,19,80.80
2007,02,24,09,20,101.20
2007,02,24,09,21,113.40
2007,02,24,09,22,122.40
2007,02,24,09,23,136.30
2007,02,24,09,24,153.40
2007,02,24,09,25,159.50
2007,02,24,09,26,149.80
2007,02,24,09,27,129.60
2007,02,24,09,28,116.40
2007,02,24,09,29,114.70
2007,02,24,09,30,106.70
2007,02,24,09,31,96.20
2007,02,24,09,32,86.50
2007,02,24,09,33,85.80
2007,02,24,09,34,70.80
2007,02,24,09,35,51.50
2007,02,24,09,36,44.30
2007,02,24,09,37,47.10
2007,02,24,09,38,53.30
2007,02,24,09,39,55.80
2007,02,24,09,40,60.40
2007,02,24,09,41,71.50
2007,02,24,09,42,82.90
2007,02,24,09,43,82.10
2007,02,24,09,44,81.90
2007,02,24,09,45,92.90
2007,02,24,09,46,102.20
2007,02,24,09,47,99.90
2007,02,24,09,48,98.80
2007,02,24,09,49,110.80
2007,02,24,09,50,102.70
2007,02,24,09,51,101.20
2007,02,24,09,52,89.00
2007,02,24,09,53,81.40
2007,02,24,09,54,76.60
2007,02,24,09,55,77.90
2007,02,24,09,56,69.10
2007,02,24,09,57,58.90
2007,02,24,09,58,61.40
2007,02,24,09,59,63.00
2007,02,24,10,00,62.10
2007,02,24,10,01,53.40
2007,02,24,10,02,49.00
2007,02,24,10,03,44.90
2007,02,24,10,04,41.20
2007,02,24,10,05,39.20
2007,02,24,10,06,36.00
2007,02,24,10,07,39.80
2007,02,24,10,08,39.40
2007,02,24,10,09,41.10
2007,02,24,10,10,38.60
2007,02,24,10,11,38.70
2007,02,24,10,12,40.10
2007,02,24,10,13,50.20
2007,02,24,10,14,49.00
2007,02,24,10,15,45.80
2007,02,24,10,16,48.50
2007,02,24,10,17,47.30
2007,02,24,10,18,51.70
2007,02,24,10,19,45.80
2007,02,24,10,20,48.10
2007,02,24,10,21,45.30
2007,02,24,10,22,40.20
2007,02,24,10,23,37.30
2007,02,24,10,24,38.60
2007,02,24,10,25,38.80
2007,02,24,10,26,42.90
2007,02,24,10,27,44.00
2007,02,24,10,28,47.80
2007,02,24,10,29,57.30
2007,02,24,10,30,60.70
2007,02,24,10,31,56.70
2007,02,24,10,32,63.50
2007,02,24,10,33,67.70
2007,02,24,10,34,67.00
2007,02,24,10,35,69.20
2007,02,24,10,36,71.20
2007,02,24,10,37,63.80
2007,02,24,10,38,53.40
2007,02,24,10,39,54.20
2007,02,24,10,40,60.70
2007,02,24,10,41,56.50
2007,02,24,10,42,60.80
2007,02,24,10,43,69.40
2007,02,24,10,44,61.20
2007,02,24,10,45,55.40
2007,02,24,10,46,63.20
2007,02,24,10,47,76.40
2007,02,24,10,48,74.60
2007,02,24,10,49,66.60
2007,02,24,10,50,67.70
2007,02,24,10,51,74.80
2007,02,24,10,52,76.80
2007,02,24,10,53,84.00
2007,02,24,10,54,81.90
2007,02,24,10,55,74.20
2007,02,24,10,56,74.40
2007,02,24,10,57,79.80
2007,02,24,10,58,75.10
2007,02,24,10,59,57.20
2007,02,24,11,00,53.00
2007,02,24,11,01,53.00
2007,02,24,11,02,50.60
2007,02,24,11,03,45.30
2007,02,24,11,04,43.90
2007,02,24,11,05,41.70
2007,02,24,11,06,39.70
2007,02,24,11,07,38.10
2007,02,24,11,08,34.60
2007,02,24,11,09,32.20
2007,02,24,11,10,28.30
2007,02,24,11,11,26.00
2007,02,24,11,12,26.60
2007,02,24,11,13,28.00
2007,02,24,11,14,29.30
2007,02,24,11,15,32.20
2007,02,24,11,16,33.40
2007,02,24,11,17,37.60
2007,02,24,11,18,40.70
2007,02,24,11,19,43.10
2007,02,24,11,20,45.30
2007,02,24,11,21,46.80
2007,02,24,11,22,47.20
2007,02,24,11,23,49.00
2007,02,24,11,24,50.50
2007,02,24,11,25,54.70
2007,02,24,11,26,53.90
2007,02,24,11,27,53.80
2007,02,24,11,28,58.00
2007,02,24,11,29,58.50
2007,02,24,11,30,60.00
2007,02,24,11,31,60.00
2007,02,24,11,32,60.00
2007,02,24,11,33,58.30
2007,02,24,11,34,56.00
2007,02,24,11,35,55.10
2007,02,24,11,36,53.40
2007,02,24,11,37,54.00
2007,02,24,11,38,60.00
2007,02,24,11,39,62.00
2007,02,24,11,40,64.70
2007,02,24,11,41,64.30
2007,02,24,11,42,66.10
2007,02,24,11,43,63.80
2007,02,24,11,44,64.50
2007,02,24,11,45,60.50
2007,02,24,11,46,56.00
2007,02,24,11,47,55.40
2007,02,24,11,48,51.50
2007,02,24,11,49,45.80
2007,02,24,11,50,40.10
2007,02,24,11,51,41.90
2007,02,24,11,52,45.60
2007,02,24,11,53,41.50
2007,02,24,11,54,38.00
2007,02,24,11,55,33.20
2007,02,24,11,56,37.50
2007,02,24,11,57,45.70
2007,02,24,11,58,45.60
2007,02,24,11,59,45.20
2007,02,24,12,00,47.00
2007,02,24,12,01,47.00
2007,02,24,12,02,46.20
2007,02,24,12,03,44.10
2007,02,24,12,04,44.00
2007,02,24,12,05,44.00
2007,02,24,12,06,41.90
2007,02,24,12,07,36.60
2007,02,24,12,08,31.00
2007,02,24,12,09,35.30
2007,02,24,12,10,35.70
2007,02,24,12,11,32.40
2007,02,24,12,12,33.00
2007,02,24,12,13,34.40
2007,02,24,12,14,33.30
2007,02,24,12,15,32.50
2007,02,24,12,16,28.70
2007,02,24,12,17,26.20
2007,02,24,12,18,28.00
2007,02,24,12,19,26.50
2007,02,24,12,20,23.50
2007,02,24,12,21,25.00
2007,02,24,12,22,25.30
2007,02,24,12,23,26.00
2007,02,24,12,24,25.40
2007,02,24,12,25,25.70
2007,02,24,12,26,29.50
2007,02,24,12,27,28.40
2007,02,24,12,28,30.90
2007,02,24,12,29,33.90
2007,02,24,12,30,40.40
2007,02,24,12,31,42.40
2007,02,24,12,32,42.30
2007,02,24,12,33,49.00
2007,02,24,12,34,50.80
2007,02,24,12,35,54.00
2007,02,24,12,36,55.30
2007,02,24,12,37,61.20
2007,02,24,12,38,68.90
2007,02,24,12,39,74.40
2007,02,24,12,40,76.00
2007,02,24,12,41,77.50
2007,02,24,12,42,82.20
2007,02,24,12,43,73.90
2007,02,24,12,44,87.70
2007,02,24,12,45,93.00
2007,02,24,12,46,91.00
2007,02,24,12,47,92.70
2007,02,24,12,48,111.00
2007,02,24,12,49,112.10
2007,02,24,12,50,111.90
2007,02,24,12,51,131.40
2007,02,24,12,52,143.80
2007,02,24,12,53,155.70
2007,02,24,12,54,159.10
2007,02,24,12,55,149.50
2007,02,24,12,56,195.90
2007,02,24,12,57,225.40
2007,02,24,12,58,270.80
2007,02,24,12,59,317.80
2007,02,24,13,00,365.70
2007,02,24,13,01,330.90
2007,02,24,13,02,319.60
2007,02,24,13,03,246.60
2007,02,24,13,04,200.10
2007,02,24,13,05,184.30
2007,02,24,13,06,168.70
2007,02,24,13,07,179.10
2007,02,24,13,08,174.50
2007,02,24,13,09,183.00
2007,02,24,13,10,203.30
2007,02,24,13,11,210.30
2007,02,24,13,12,216.50
2007,02,24,13,13,218.90
2007,02,24,13,14,267.80
2007,02,24,13,15,243.00
2007,02,24,13,16,243.00
2007,02,24,13,17,300.90
2007,02,24,13,18,283.80
2007,02,24,13,19,297.80
2007,02,24,13,20,245.20
2007,02,24,13,21,207.50
2007,02,24,13,22,163.30
2007,02,24,13,23,108.90
2007,02,24,13,24,97.40
2007,02,24,13,25,106.20
2007,02,24,13,26,128.80
2007,02,24,13,27,156.10
2007,02,24,13,28,154.50
2007,02,24,13,29,165.40
2007,02,24,13,30,160.80
2007,02,24,13,31,165.30
2007,02,24,13,32,144.40
2007,02,24,13,33,136.40
2007,02,24,13,34,146.90
2007,02,24,13,35,158.50
2007,02,24,13,36,160.50
2007,02,24,13,37,162.70
2007,02,24,13,38,157.80
2007,02,24,13,39,144.20
2007,02,24,13,40,123.60
2007,02,24,13,41,106.80
2007,02,24,13,42,98.70
2007,02,24,13,43,84.60
2007,02,24,13,44,92.80
2007,02,24,13,45,106.40
2007,02,24,13,46,111.30
2007,02,24,13,47,105.30
2007,02,24,13,48,102.20
2007,02,24,13,49,106.20
2007,02,24,13,50,111.00
2007,02,24,13,51,123.60
2007,02,24,13,52,145.50
2007,02,24,13,53,156.10
2007,02,24,13,54,180.00
2007,02,24,13,55,207.40
2007,02,24,13,56,201.60
2007,02,24,13,57,178.50
2007,02,24,13,58,164.60
2007,02,24,13,59,136.50
2007,02,24,14,00,102.10
2007,02,24,14,01,104.50
2007,02,24,14,02,100.20
2007,02,24,14,03,93.00
2007,02,24,14,04,76.30
2007,02,24,14,05,64.80
2007,02,24,14,06,70.00
2007,02,24,14,07,77.20
2007,02,24,14,08,91.60
2007,02,24,14,09,102.20
2007,02,24,14,10,114.90
2007,02,24,14,11,125.60
2007,02,24,14,12,110.80
2007,02,24,14,13,96.20
2007,02,24,14,14,104.60
2007,02,24,14,15,116.70
2007,02,24,14,16,122.10
2007,02,24,14,17,122.70
2007,02,24,14,18,143.60
2007,02,24,14,19,101.50
2007,02,24,14,20,102.20
2007,02,24,14,21,117.00
2007,02,24,14,22,131.60
2007,02,24,14,23,103.40
2007,02,24,14,24,104.40
2007,02,24,14,25,100.70
2007,02,24,14,26,94.40
2007,02,24,14,27,94.60
2007,02,24,14,28,134.00
2007,02,24,14,29,104.80
2007,02,24,14,30,104.90
2007,02,24,14,31,144.00
2007,02,24,14,32,126.50
2007,02,24,14,33,114.80
2007,02,24,14,34,123.80
2007,02,24,14,35,110.40
2007,02,24,14,36,146.40
2007,02,24,14,37,175.30
2007,02,24,14,38,158.40
2007,02,24,14,39,169.60
2007,02,24,14,40,133.00
2007,02,24,14,41,120.40
2007,02,24,14,42,100.00
2007,02,24,14,43,90.90
2007,02,24,14,44,81.00
2007,02,24,14,45,94.50
2007,02,24,14,46,105.10
2007,02,24,14,47,111.20
2007,02,24,14,48,98.50
2007,02,24,14,49,97.40
2007,02,24,14,50,93.00
2007,02,24,14,51,100.50
2007,02,24,14,52,106.40
2007,02,24,14,53,118.80
2007,02,24,14,54,106.20
2007,02,24,14,55,98.90
2007,02,24,14,56,111.60
2007,02,24,14,57,118.60
2007,02,24,14,58,137.70
2007,02,24,14,59,138.40
2007,02,24,15,00,131.10
2007,02,24,15,01,119.20
2007,02,24,15,02,118.00
2007,02,24,15,03,119.50
2007,02,24,15,04,124.20
2007,02,24,15,05,136.10
2007,02,24,15,06,143.80
2007,02,24,15,07,151.30
2007,02,24,15,08,158.00
2007,02,24,15,09,162.20
2007,02,24,15,10,160.30
2007,02,24,15,11,152.00
2007,02,24,15,12,148.90
2007,02,24,15,13,155.10
2007,02,24,15,14,173.30
2007,02,24,15,15,202.30
2007,02,24,15,16,235.60
2007,02,24,15,17,270.30
2007,02,24,15,18,299.10
2007,02,24,15,19,331.00
2007,02,24,15,20,349.80
2007,02,24,15,21,339.20
2007,02,24,15,22,303.80
2007,02,24,15,23,263.80
2007,02,24,15,24,237.40
2007,02,24,15,25,219.60
2007,02,24,15,26,217.60
2007,02,24,15,27,220.00
2007,02,24,15,28,227.60
2007,02,24,15,29,216.60
2007,02,24,15,30,195.60
2007,02,24,15,31,179.30
2007,02,24,15,32,173.40
2007,02,24,15,33,169.60
2007,02,24,15,34,162.40
2007,02,24,15,35,141.40
2007,02,24,15,36,115.40
2007,02,24,15,37,99.10
2007,02,24,15,38,95.00
2007,02,24,15,39,95.00
2007,02,24,15,40,100.60
2007,02,24,15,41,104.90
2007,02,24,15,42,110.20
2007,02,24,15,43,119.20
2007,02,24,15,44,127.90
2007,02,24,15,45,138.60
2007,02,24,15,46,126.70
2007,02,24,15,47,124.40
2007,02,24,15,48,121.70
2007,02,24,15,49,120.60
2007,02,24,15,50,118.80
2007,02,24,15,51,123.80
2007,02,24,15,52,123.80
2007,02,24,15,53,127.90
2007,02,24,15,54,132.20
2007,02,24,15,55,140.90
2007,02,24,15,56,145.60
2007,02,24,15,57,143.70
2007,02,24,15,58,132.70
2007,02,24,15,59,127.70
2007,02,24,16,00,128.50
2007,02,24,16,01,124.30
2007,02,24,16,02,120.20
2007,02,24,16,03,114.30
2007,02,24,16,04,114.00
2007,02,24,16,05,114.00
2007,02,24,16,06,112.50
2007,02,24,16,07,112.40
2007,02,24,16,08,113.80
2007,02,24,16,09,116.30
2007,02,24,16,10,119.50
2007,02,24,16,11,117.30
2007,02,24,16,12,114.30
2007,02,24,16,13,113.00
2007,02,24,16,14,113.00
2007,02,24,16,15,108.70
2007,02,24,16,16,106.20
2007,02,24,16,17,103.20
2007,02,24,16,18,100.80
2007,02,24,16,19,98.60
2007,02,24,16,20,97.20
2007,02,24,16,21,92.90
2007,02,24,16,22,91.00
2007,02,24,16,23,91.80
2007,02,24,16,24,95.20
2007,02,24,16,25,100.70
2007,02,24,16,26,104.80
2007,02,24,16,27,109.60
2007,02,24,16,28,113.30
2007,02,24,16,29,115.70
2007,02,24,16,30,119.10
2007,02,24,16,31,120.00
2007,02,24,16,32,116.40
2007,02,24,16,33,112.60
2007,02,24,16,34,110.30
2007,02,24,16,35,108.10
2007,02,24,16,36,108.30
2007,02,24,16,37,109.00
2007,02,24,16,38,107.10
2007,02,24,16,39,106.60
2007,02,24,16,40,105.00
2007,02,24,16,41,104.50
2007,02,24,16,42,104.00
2007,02,24,16,43,100.80
2007,02,24,16,44,98.10
2007,02,24,16,45,96.50
2007,02,24,16,46,94.30
2007,02,24,16,47,92.00
2007,02,24,16,48,90.30
2007,02,24,16,49,88.40
2007,02,24,16,50,87.80
2007,02,24,16,51,86.40
2007,02,24,16,52,88.00
2007,02,24,16,53,86.90
2007,02,24,16,54,87.40
2007,02,24,16,55,88.00
2007,02,24,16,56,88.00
2007,02,24,16,57,88.00
2007,02,24,16,58,88.80
2007,02,24,16,59,88.80
2007,02,24,17,00,86.60
2007,02,24,17,01,84.30
2007,02,24,17,02,80.70
2007,02,24,17,03,78.10
2007,02,24,17,04,75.20
2007,02,24,17,05,71.80
2007,02,24,17,06,70.00
2007,02,24,17,07,65.40
2007,02,24,17,08,62.80
2007,02,24,17,09,61.40
2007,02,24,17,10,60.00
2007,02,24,17,11,58.80
2007,02,24,17,12,56.50
2007,02,24,17,13,54.20
2007,02,24,17,14,50.60
2007,02,24,17,15,48.10
2007,02,24,17,16,44.00
2007,02,24,17,17,40.10
2007,02,24,17,18,34.50
2007,02,24,17,19,30.10
2007,02,24,17,20,27.40
2007,02,24,17,21,24.30
2007,02,24,17,22,22.00
2007,02,24,17,23,21.00
2007,02,24,17,24,19.40
2007,02,24,17,25,19.00
2007,02,24,17,26,18.80
2007,02,24,17,27,17.30
2007,02,24,17,28,16.00
2007,02,24,17,29,14.70
2007,02,24,17,30,14.00